[[{"header":{"parameterUnit":"m.s-1","parameterCategory":1,"la1":30.2991,"la2":30.254,"lo1":-89.0895,"lo2":-89.0444,"dy":0.0017,"dx":0.0017,"nx":28,"ny":28,"refTime":"2024-06-29T03:00:00:Z","depth":0,"parameterNumber":2,"parameterNumberName":"U-component_of_WINDS"},"data":[0,0,0,0,0,0,0,0,0,0,0,0,0,0,0,0,0,0,0,0,0,0,0,0,0,0,0,0,0,0,0,0,0,0,0,0,0,0,0,0,0,0,0,0,0,0,0,0,0,0,0,0,0,0,0,0,0,0,2.5354,2.5354,0,2.5393,2.5394,2.5394,2.5373,2.5372,2.5371,2.537,2.5412,2.5414,2.5416,0,0,0,0,0,0,0,0,0,0,0,0,0,2.5266,2.5268,2.5354,2.5355,2.5355,2.5393,2.5394,2.5394,2.5373,2.5372,2.537,2.5369,2.5411,2.5414,2.5416,0,0,0,0,0,0,0,0,0,0,0,0,0,2.5305,2.5268,2.5354,2.5349,2.5349,2.5393,2.5394,2.5394,2.5373,2.5372,2.537,2.5368,2.541,2.5413,2.5417,2.5469,0,0,2.5426,2.5428,0,0,0,0,0,0,0,0,2.5302,2.5308,2.5349,2.5349,2.5349,2.5376,2.5378,2.5419,2.5374,2.5364,2.537,2.5368,2.5402,2.5405,2.5416,2.5471,2.5472,2.5427,2.5429,2.543,2.5431,0,0,0,0,0,0,0,2.53,2.5306,2.537,2.535,2.535,2.5346,2.535,2.5386,2.5391,2.5365,2.5363,2.5368,2.5401,2.5413,2.5417,2.5473,2.5427,2.5429,2.5431,2.5433,2.5578,2.558,0,0,0,0,0,0,2.5297,2.5304,2.5368,2.5371,2.5321,2.5349,2.5353,2.5369,2.5391,2.5393,2.5369,2.5367,2.5409,2.5413,2.5419,2.5485,2.543,2.5433,2.5435,2.5576,2.5578,2.558,0,0,0,0,0,0,2.5295,2.5303,2.5367,2.5337,2.5345,2.5353,2.5371,2.5371,2.5383,2.5394,2.5396,2.538,2.5408,2.5414,2.5458,2.5486,2.5434,2.5437,2.5574,2.5577,2.5579,2.5615,0,0,0,0,0,0,2.5293,2.5302,2.532,2.5338,2.5347,2.5403,2.5372,2.5373,2.5388,2.5385,2.5405,2.5407,2.5407,2.5453,2.5461,2.5489,2.544,2.5571,2.5575,2.5579,2.5611,2.5619,2.5625,0,0,0,0,0,2.5289,2.5328,2.5321,2.5329,2.5369,2.5405,2.541,2.5409,2.539,2.541,2.5419,2.5406,2.5481,2.5457,2.5466,2.5496,2.557,2.5574,2.5578,2.5608,2.5617,2.5625,0,0,0,0,0,0,2.5314,2.533,2.5323,2.5368,2.5385,2.5401,2.5426,2.5418,2.5441,2.5437,2.5435,2.544,2.5486,2.5495,2.5468,2.555,2.5523,2.5529,2.5543,2.5551,2.5558,2.5555,2.5442,0,0,0,0,0,2.5325,2.5351,2.5364,2.5403,2.5412,2.5418,2.5433,2.5431,2.5449,2.5456,2.5467,2.5486,2.5515,2.5533,2.5559,2.5612,2.5619,2.5638,2.5644,2.565,2.5656,2.5689,2.5699,2.5595,2.5595,2.5595,0,0,2.5347,2.5359,2.5375,2.5408,2.5421,2.5451,2.5424,2.5455,2.5478,2.5461,2.5503,2.5513,2.5534,2.5584,2.5606,2.5593,2.5686,2.5656,2.566,2.5663,2.5695,2.5705,2.5714,2.5598,2.5597,2.5597,0,0,2.5403,2.5413,2.5449,2.5463,2.5484,2.5488,2.5497,2.5515,2.5521,2.5563,2.5553,2.5581,2.5628,2.5645,2.566,2.5728,2.5719,2.5737,2.5773,2.5805,2.5814,2.5821,2.5849,2.5858,2.5742,2.5742,2.5742,0,2.5428,2.547,2.5468,2.5501,2.5518,2.5505,2.5543,2.5557,2.5585,2.5598,2.5583,2.5645,2.5658,2.5714,2.5731,2.5743,2.5755,2.5734,2.5812,2.582,2.5827,2.5853,2.5863,2.5745,2.5744,2.5744,2.5744,0,2.5502,2.5533,2.5559,2.5588,2.5607,2.5642,2.5648,2.5668,2.5665,2.5672,2.5718,2.5734,2.5766,2.5779,2.5775,2.5836,2.5827,2.5812,2.5785,2.5839,2.5864,2.5874,2.5748,2.5747,2.5746,2.5746,0,0,2.5573,2.5603,2.5613,2.5628,2.5651,2.5676,2.5712,2.5743,2.5762,2.5783,2.5816,2.5859,2.5847,2.5864,2.5863,2.5892,2.595,2.5874,2.5875,2.589,2.6022,2.6034,2.6046,2.5944,2.5946,2.5947,2.6021,0,2.5633,2.5696,2.5697,2.5756,2.5786,2.5776,2.5809,2.5828,2.5837,2.5865,2.5875,2.5907,2.5886,2.5897,2.5925,2.5937,2.5976,2.5931,2.5977,2.5979,2.5974,2.6058,2.6071,2.614,2.603,2.6032,2.6033,0,2.571,2.5736,2.5798,2.5821,2.5834,2.5863,2.5894,2.592,2.5944,2.5949,2.597,2.5966,2.6007,2.5978,2.6037,2.6006,2.6025,2.6035,2.6037,2.6043,2.601,2.6069,2.6161,2.6172,2.6048,2.6047,2.6046,0,2.576,2.5809,2.5854,2.5866,2.5894,2.5915,2.5928,2.595,2.597,2.5998,2.6012,2.6044,2.6062,2.6088,2.6095,2.6072,2.6155,2.6125,2.6163,2.6163,2.6181,2.618,2.628,2.619,2.619,2.6189,2.6189,0,2.5828,2.5867,2.5877,2.5904,2.595,2.5951,2.5997,2.6008,2.6029,2.6061,2.6054,2.6085,2.609,2.6123,2.6129,2.6179,2.6186,2.6193,2.6195,2.6195,2.6195,2.6209,2.6205,2.6192,2.6192,2.6191,2.6191,0,2.589,2.5898,2.5947,2.597,2.5977,2.601,2.6031,2.6059,2.6068,2.6109,2.6118,2.6133,2.6172,2.6181,2.6226,2.623,2.6291,2.6286,2.6283,2.6283,2.6321,2.6318,2.6435,2.6452,2.6349,2.635,2.635,0,2.5934,2.5964,2.5992,2.6012,2.6027,2.606,2.6081,2.6085,2.6108,2.614,2.6166,2.6204,2.6234,2.6297,2.6313,2.635,2.6348,2.6386,2.6353,2.6354,2.6352,2.6351,2.6356,2.6393,2.6394,2.6395,2.6396,0,2.6012,2.6015,2.6045,2.6078,2.6104,2.613,2.6155,2.6173,2.6181,2.6208,2.6248,2.6272,2.632,2.6359,2.6397,2.6412,2.6407,2.6406,2.6417,2.6419,2.6417,2.6422,2.6303,2.6404,2.6403,2.6402,2.6402,2.6401,2.6068,2.6096,2.6121,2.6156,2.6176,2.6201,2.6229,2.6243,2.6276,2.6315,2.6316,2.6361,2.6389,2.6438,2.6457,2.6493,2.6482,2.6497,2.6501,2.6506,2.6511,2.641,2.65,2.65,2.65,2.6499,2.6499,0,2.6148,2.6165,2.6197,2.6233,2.6262,2.6254,2.6282,2.6308,2.6346,2.6372,2.6403,2.6452,2.6491,2.6511,2.6551,2.6577,2.6576,2.6588,2.6587,2.6592,2.6517,2.6505,2.6588,2.6588,2.6588,2.6588,2.6588,2.6588,2.6193,2.6242,2.6249,2.6309,2.6325,2.6368,2.6386,2.641,2.6431,2.6485,2.6517,2.653,2.6556,2.6598,2.6635,2.6641,2.6657,2.6671,2.6675,2.6605,2.6596,2.6587,2.6576,2.6673,2.6674,2.6747,2.6748,2.6748]},{"header":{"parameterUnit":"m.s-1","parameterCategory":1,"la1":30.2991,"la2":30.254,"lo1":-89.0895,"lo2":-89.0444,"dy":0.0017,"dx":0.0017,"nx":28,"ny":28,"refTime":"2024-06-29T03:00:00:Z","depth":0,"parameterNumber":3,"parameterNumberName":"V-component_of_WINDS"},"data":[0,0,0,0,0,0,0,0,0,0,0,0,0,0,0,0,0,0,0,0,0,0,0,0,0,0,0,0,0,0,0,0,0,0,0,0,0,0,0,0,0,0,0,0,0,0,0,0,0,0,0,0,0,0,0,0,0,0,1.0609,1.0612,0,1.09,1.0904,1.0907,1.0895,1.0891,1.0887,1.0883,1.1186,1.1197,1.1209,0,0,0,0,0,0,0,0,0,0,0,0,0,1.0043,1.0053,1.0609,1.0612,1.0616,1.09,1.0904,1.0908,1.0896,1.0891,1.0886,1.0881,1.1182,1.1196,1.121,0,0,0,0,0,0,0,0,0,0,0,0,0,1.0307,1.0057,1.0608,1.0644,1.065,1.0899,1.0904,1.0909,1.0897,1.0891,1.0884,1.0879,1.1177,1.1194,1.1212,1.1445,0,0,1.1266,1.1274,0,0,0,0,0,0,0,0,1.0292,1.0328,1.0635,1.0642,1.0649,1.0855,1.0815,1.1089,1.0898,1.0803,1.0883,1.0876,1.1081,1.1106,1.1174,1.146,1.1472,1.1268,1.1279,1.1286,1.1291,0,0,0,0,0,0,0,1.0274,1.0315,1.0724,1.064,1.0648,1.0646,1.0677,1.0867,1.0973,1.0811,1.0811,1.0845,1.1083,1.1157,1.1181,1.1477,1.1267,1.1283,1.1294,1.1301,1.1964,1.1971,0,0,0,0,0,0,1.0247,1.03,1.0715,1.0733,1.0452,1.0661,1.0696,1.0795,1.0971,1.0992,1.085,1.0844,1.113,1.1161,1.1192,1.1475,1.1286,1.1303,1.1313,1.1958,1.1966,1.1973,0,0,0,0,0,0,1.0235,1.0284,1.0703,1.0517,1.057,1.0678,1.079,1.0804,1.0878,1.1001,1.102,1.0906,1.1126,1.1167,1.1381,1.1485,1.1311,1.1327,1.1949,1.196,1.197,1.2044,0,0,0,0,0,0,1.0219,1.028,1.037,1.0519,1.058,1.0888,1.0796,1.0814,1.0908,1.0902,1.1058,1.1078,1.1125,1.1355,1.1399,1.1507,1.1341,1.1941,1.1954,1.1966,1.2033,1.2055,1.2075,0,0,0,0,0,1.0199,1.0381,1.0375,1.0425,1.0694,1.0894,1.0929,1.0977,1.0917,1.1008,1.1086,1.1073,1.1466,1.1377,1.1427,1.1541,1.1934,1.195,1.1966,1.2023,1.2051,1.2074,0,0,0,0,0,0,1.0244,1.0401,1.0396,1.0631,1.0749,1.0891,1.1008,1.1006,1.1144,1.1133,1.1189,1.1224,1.1438,1.1511,1.1409,1.1775,1.1693,1.1719,1.1719,1.1747,1.1768,1.1746,1.1356,0,0,0,0,0,1.0281,1.0429,1.0559,1.0754,1.0813,1.09,1.0989,1.1016,1.1141,1.1191,1.1285,1.1407,1.1558,1.1656,1.1802,1.2042,1.2075,1.2145,1.2166,1.2183,1.2206,1.2335,1.2367,1.2025,1.2025,1.2024,0,0,1.036,1.0464,1.0555,1.0766,1.086,1.1012,1.0942,1.1107,1.1221,1.1216,1.1424,1.1497,1.1636,1.1864,1.1969,1.1931,1.2307,1.2203,1.2216,1.2229,1.2355,1.2387,1.2416,1.2035,1.2033,1.2032,0,0,1.0581,1.0675,1.0847,1.0942,1.1084,1.114,1.1181,1.1324,1.1371,1.1579,1.1578,1.1714,1.1973,1.2072,1.2156,1.241,1.2403,1.2456,1.2567,1.2693,1.272,1.2744,1.2833,1.2865,1.2478,1.2478,1.2478,0,1.0662,1.089,1.0936,1.1101,1.1193,1.1193,1.1366,1.1457,1.164,1.1704,1.1659,1.1981,1.2076,1.2325,1.2386,1.2455,1.2503,1.2439,1.2712,1.2737,1.276,1.2846,1.2879,1.2483,1.2483,1.2482,1.2482,0,1.0981,1.1139,1.1261,1.1435,1.1541,1.171,1.178,1.1882,1.1898,1.1959,1.217,1.2282,1.2449,1.251,1.253,1.2762,1.2734,1.27,1.2619,1.2797,1.2879,1.2912,1.2491,1.2489,1.2488,1.2486,0,0,1.1242,1.1436,1.148,1.1558,1.1713,1.1837,1.2004,1.2165,1.2251,1.2376,1.2518,1.2735,1.2703,1.2799,1.2828,1.2939,1.313,1.2891,1.2895,1.2931,1.339,1.3414,1.3452,1.3125,1.3132,1.3137,1.3378,0,1.1479,1.1775,1.1818,1.208,1.2225,1.2226,1.2371,1.2482,1.2542,1.2675,1.2742,1.2894,1.2842,1.2899,1.3008,1.3083,1.3223,1.3067,1.3257,1.3263,1.3222,1.3495,1.3522,1.3744,1.341,1.3416,1.342,0,1.1795,1.1926,1.2201,1.2333,1.2396,1.2526,1.2675,1.2802,1.2927,1.2963,1.3067,1.3082,1.3255,1.3165,1.3404,1.3296,1.3376,1.3425,1.3434,1.3454,1.3352,1.3521,1.3816,1.3849,1.347,1.3466,1.3463,0,1.1956,1.2201,1.2396,1.2463,1.2623,1.2714,1.2785,1.2903,1.2996,1.3127,1.3187,1.3337,1.342,1.3535,1.359,1.352,1.3824,1.3739,1.3858,1.3856,1.3923,1.3918,1.4234,1.3975,1.3974,1.3974,1.3973,0,1.2215,1.2383,1.247,1.2591,1.2778,1.2826,1.301,1.3078,1.3183,1.3316,1.3326,1.3451,1.3516,1.365,1.3694,1.3883,1.3921,1.3954,1.3963,1.3953,1.3949,1.4007,1.3992,1.3982,1.398,1.3979,1.3977,0,1.2427,1.2493,1.2705,1.2837,1.2874,1.3006,1.3119,1.3236,1.3293,1.3461,1.3504,1.3595,1.3753,1.3818,1.4013,1.4042,1.4259,1.4258,1.4217,1.422,1.4334,1.4322,1.4699,1.475,1.4457,1.446,1.4462,0,1.2588,1.2717,1.2862,1.295,1.3023,1.3167,1.3261,1.3312,1.341,1.3559,1.3657,1.3814,1.3943,1.4196,1.4279,1.4427,1.4429,1.4551,1.4452,1.4436,1.4429,1.4421,1.4433,1.4569,1.4572,1.4574,1.4576,0,1.2867,1.2892,1.3026,1.3171,1.3282,1.34,1.3514,1.3586,1.3655,1.3764,1.3925,1.4024,1.4221,1.4376,1.4528,1.4601,1.4601,1.4606,1.4641,1.4632,1.4602,1.4618,1.4266,1.4598,1.4596,1.4594,1.4593,1.4592,1.3059,1.3171,1.329,1.3438,1.3529,1.3634,1.3749,1.382,1.3954,1.4117,1.4139,1.431,1.4429,1.4633,1.4711,1.4845,1.4814,1.4866,1.4879,1.489,1.4897,1.458,1.4873,1.4873,1.4872,1.4872,1.4872,0,1.3337,1.3411,1.3547,1.3705,1.3822,1.3808,1.3933,1.4031,1.4181,1.4291,1.4416,1.4599,1.4749,1.4843,1.4994,1.5083,1.5086,1.5121,1.5115,1.5131,1.4917,1.4871,1.5115,1.5115,1.5115,1.5115,1.5115,1.5115,1.3495,1.3684,1.3723,1.3956,1.4031,1.4197,1.4269,1.4366,1.4454,1.4657,1.4781,1.484,1.4943,1.5101,1.5237,1.5261,1.5315,1.5352,1.5373,1.5172,1.5147,1.5122,1.5079,1.5364,1.5364,1.5576,1.5578,1.558]}]]